BV5AB-13 Weather Reports


time (UTC)temp
C
wind
direction
speed
KPH
gust
KPH
rain 1hr
cm
rain 24hr
cm
rain mn
cm
humidity
%
barometer
mb
20260505032704 22 0 0.0 8.0 0.00 0.71 0.36 91 1005.0
20260505031704 22 30 0.0 8.0 0.05 0.71 0.36 89 1005.1
20260505030703 22 240 1.6 9.7 0.05 0.71 0.36 90 1005.3
20260505025703 22 230 1.6 9.7 0.10 0.71 0.36 92 1005.3
20260505024704 22 0 0.0 9.7 0.20 0.71 0.36 93 1005.2
20260505023704 22 0 0.0 9.7 0.20 0.71 0.36 92 1005.2
20260505022704 22 0 0.0 9.7 0.20 0.71 0.36 92 1005.2
20260505021703 22 0 0.0 9.7 0.20 0.71 0.36 91 1005.2
20260505020704 22 310 1.6 6.4 0.20 0.66 0.30 89 1005.1
20260505015704 22 310 1.6 6.4 0.15 0.61 0.25 88 1005.3
20260505014703 22 0 0.0 6.4 0.05 0.51 0.15 89 1005.2
20260505013703 22 310 1.6 6.4 0.05 0.51 0.15 90 1005.1
20260505012703 22 260 4.8 6.4 0.05 0.51 0.15 88 1005.3
20260505011703 22 0 0.0 6.4 0.05 0.51 0.15 89 1005.1
20260505010704 22 0 0.0 9.7 0.00 0.46 0.10 87 1005.1
20260505005704 22 0 0.0 9.7 0.00 0.46 0.10 89 1005.1
20260505004703 21 0 0.0 9.7 0.00 0.46 0.10 90 1004.9
20260505003708 22 0 0.0 9.7 0.00 0.46 0.10 90 1004.9
20260505002704 21 30 1.6 9.7 0.00 0.46 0.10 90 1004.9
20260505001705 21 20 3.2 9.7 0.00 0.46 0.10 89 1004.9
20260505000704 21 350 1.6 12.9 0.00 0.46 0.10 90 1004.9
20260504235704 21 320 3.2 12.9 0.00 0.46 0.10 89 1004.9
20260504234703 21 330 3.2 12.9 0.00 0.46 0.10 89 1004.8
20260504233703 21 340 3.2 12.9 0.00 0.46 0.10 90 1004.6
20260504232704 21 340 1.6 12.9 0.00 0.46 0.10 91 1004.7
20260504231704 21 0 3.2 12.9 0.00 0.46 0.10 92 1004.6
20260504230704 21 0 0.0 9.7 0.00 0.46 0.10 92 1004.4
20260504225704 21 330 1.6 9.7 0.00 0.46 0.10 91 1004.4
20260504224703 21 340 4.8 9.7 0.00 0.46 0.10 91 1004.3
20260504223704 21 320 1.6 9.7 0.00 0.46 0.10 90 1004.3
20260504222705 21 330 3.2 9.7 0.00 0.46 0.10 90 1004.2
20260504221704 21 330 3.2 9.7 0.00 0.46 0.10 90 1004.2
20260504220704 21 330 3.2 8.0 0.00 0.46 0.10 93 1004.0
20260504215703 22 0 0.0 8.0 0.00 0.46 0.10 94 1003.9
20260504214704 22 0 0.0 8.0 0.00 0.46 0.10 93 1003.8
20260504213703 22 240 1.6 8.0 0.00 0.46 0.10 92 1003.9
20260504212703 22 230 1.6 8.0 0.00 0.46 0.10 92 1003.8
20260504211704 22 200 3.2 8.0 0.00 0.46 0.10 92 1003.8
20260504210703 21 250 3.2 4.8 0.00 0.46 0.10 93 1003.8
20260504205703 22 0 0.0 4.8 0.00 0.46 0.10 94 1003.7
20260504204703 21 220 1.6 4.8 0.00 0.46 0.10 95 1003.6
20260504203704 21 230 1.6 4.8 0.00 0.46 0.10 95 1003.5
20260504202703 21 0 0.0 4.8 0.00 0.46 0.10 95 1003.4
20260504201703 21 0 0.0 4.8 0.00 0.46 0.10 95 1003.3
20260504200704 21 0 0.0 6.4 0.00 0.46 0.10 95 1003.3
20260504195703 21 0 0.0 6.4 0.00 0.46 0.10 95 1003.4
20260504194703 21 0 0.0 6.4 0.00 0.46 0.10 95 1003.3
20260504193704 21 210 1.6 6.4 0.00 0.46 0.10 95 1003.4
20260504192704 21 0 0.0 6.4 0.00 0.46 0.10 95 1003.3
20260504191703 21 230 3.2 6.4 0.00 0.46 0.10 96 1003.3
20260504190703 21 240 1.6 6.4 0.00 0.46 0.10 96 1003.3
20260504185704 21 0 0.0 6.4 0.00 0.46 0.10 96 1003.3
20260504184703 21 170 1.6 6.4 0.00 0.46 0.10 96 1003.2
20260504183703 21 160 1.6 6.4 0.05 0.46 0.10 95 1003.2
20260504182704 21 0 0.0 6.4 0.05 0.46 0.10 96 1003.5
20260504181703 21 0 0.0 6.4 0.05 0.46 0.10 96 1003.6
20260504180703 21 0 0.0 3.2 0.05 0.46 0.10 96 1003.6
20260504175703 21 160 1.6 3.2 0.05 0.46 0.10 96 1003.6
20260504174704 21 0 0.0 3.2 0.05 0.46 0.10 95 1003.8
20260504173706 21 0 0.0 3.2 0.00 0.41 0.05 96 1004.0
20260504172703 21 0 0.0 3.2 0.00 0.41 0.05 95 1003.9
20260504171705 21 0 0.0 3.2 0.05 0.41 0.05 95 1004.1
20260504170703 21 0 0.0 12.9 0.05 0.41 0.05 95 1004.2
20260504150704 21 270 1.6 8.0 0.00 0.36 0.36 92 1005.1
20260504140703 22 330 1.6 19.3 0.00 0.36 0.36 92 1004.7
20260504130703 21 0 0.0 14.5 0.05 0.36 0.36 95 1004.6
20260504110703 21 340 3.2 19.3 0.15 0.25 0.25 89 1004.7
20260504081704 26 350 6.4 17.7 0.00 0.00 0.00 54 1002.7
20260504080703 26 330 4.8 20.9 0.00 0.00 0.00 53 1002.6
20260504050704 27 320 8.0 29.0 0.00 0.00 0.00 51 1003.4
20260504045704 27 340 6.4 29.0 0.00 0.00 0.00 52 1003.5
20260504044704 27 350 8.0 29.0 0.00 0.00 0.00 52 1003.6
20260504043704 27 0 8.0 29.0 0.00 0.00 0.00 51 1003.5
20260504042704 27 0 12.9 29.0 0.00 0.00 0.00 55 1003.7
20260504041703 27 350 6.4 29.0 0.00 0.00 0.00 55 1003.7
20260504040703 26 350 11.3 29.0 0.00 0.00 0.00 54 1003.7
20260504035703 26 350 12.9 29.0 0.00 0.00 0.00 60 1003.9
20260504034704 26 350 12.9 29.0 0.00 0.00 0.00 59 1004.1
20260504033703 26 10 11.3 29.0 0.00 0.00 0.00 60 1004.0